Location: *
(60.1759°S, 155.0663°W)
Time: 19:41:33
(UTC+00:00)

Cosmos 2369 - Pass Details

Date: 17 September 2019
Orbit: 840 x 856 km, 71.0° (Epoch: 20 October)

Event Time Altitude Azimuth Distance (km) Brightness Sun altitude
Rises 12:39:07 0° 223° (SW) 3,469 7.0 -25.8°
Reaches altitude 10° 12:41:37 10° 220° (SW) 2,528 6.3 -25.6°
Maximum altitude 12:47:27 71° 135° (SE) 920 4.0 -25.1°
Drops below altitude 10° 12:53:12 10° 50° (NE) 2,499 6.2 -24.6°
Sets 12:55:39 0° 48° (NE) 3,428 6.9 -24.4°
